Regional Weather Roundup
Issued by NWS

Home | Current Version | Previous Version | Graphics & Text | Print | Product List | Glossary Off
Versions: 1 2 3 4 5 6 7 8 9 10 11 12 13 14 15 16 17 18 19 20 21 22 23 24 25 26 27 28 29 30 31 32 33 34 35 36 37 38 39 40 41 42 43 44 45 46 47 48 49 50

000
ASUS43 KOAX 230010
RWRNE

WEATHER ROUNDUP FOR NEBRASKA
NATIONAL WEATHER SERVICE OMAHA NE
700 PM CDT FRI AUG 22 2014

NOTES: SATELLITE DATA IS BEING USED TO AUGMENT CLOUD COVER ABOVE
       12000 FEET.
       "FAIR" INDICATES FEW OR NO CLOUDS BELOW 12,000 FEET WITH NO
       SIGNIFICANT WEATHER AND/OR OBSTRUCTIONS TO VISIBILITY.

  * THESE STATIONS DO NOT REPORT WEATHER SUCH AS RAIN...SNOW OR FOG.

NEZ001>004-019>022-054>056-230100-
NEBRASKA PANHANDLE

CITY           SKY/WX    TMP DP  RH WIND       PRES   REMARKS
SCOTTSBLUFF    LGT RAIN  68  62  81 SE9       30.03S
6HR MIN TEMP:  68; 6HR MAX TEMP:  77; 6HR PCP:  0.01;

ALLIANCE       PTSUNNY   67  58  72 S10       30.04F
6HR MIN TEMP:  67; 6HR MAX TEMP:  79; 6HR PCP: TRACE;

CHADRON        MOSUNNY   78  59  51 E9        29.98F
6HR MIN TEMP:  69; 6HR MAX TEMP:  79;

KIMBALL        RAIN      63  59  88 S10       30.08R
SIDNEY         LGT RAIN  65  63  93 CALM      30.08S
6HR MIN TEMP:  62; 6HR MAX TEMP:  67; 6HR PCP:  0.45;

$$

NEZ057>060-069>072-079>082-230100-
SOUTHWEST NEBRASKA

CITY           SKY/WX    TMP DP  RH WIND       PRES   REMARKS
NORTH PLATTE   PTSUNNY   79  65  62 NE9       29.95F
6HR MIN TEMP:  72; 6HR MAX TEMP:  86; 6HR PCP:  0.01;

IMPERIAL       LGT RAIN  71  63  75 N9        29.98S
6HR MIN TEMP:  71; 6HR MAX TEMP:  86; 6HR PCP: TRACE;

LEXINGTON      PTSUNNY   83  73  70 E10       29.92F
MCCOOK         MOSUNNY   83  68  60 E12       29.91S
6HR MIN TEMP:  83; 6HR MAX TEMP:  92;

OGALLALA       CLOUDY    73  58  60 N9        29.98F
$$

NEZ005>010-023>029-035>040-094-230100-
NORTH CENTRAL NEBRASKA

CITY           SKY/WX    TMP DP  RH WIND       PRES   REMARKS
VALENTINE      CLOUDY    75  62  64 S10       29.99F
6HR MIN TEMP:  75; 6HR MAX TEMP:  82; 6HR PCP: TRACE;

AINSWORTH      CLOUDY    75  65  70 CALM      30.00F
BROKEN BOW     MOSUNNY   85  69  58 NE14      29.94F
6HR MIN TEMP:  83; 6HR MAX TEMP:  88; 6HR PCP: TRACE;

O`NEILL        PTSUNNY   81  71  70 E6        29.97F
ORD            PTSUNNY   82  69  64 NE7       29.93F
6HR MIN TEMP:  82; 6HR MAX TEMP:  88;

THEDFORD       CLOUDY    75  63  66 N6        29.99F
$$

NEZ041-046>049-061>064-073>077-083>087-230100-
SOUTH CENTRAL NEBRASKA

CITY           SKY/WX    TMP DP  RH WIND       PRES   REMARKS
GRAND ISLAND   PTSUNNY   84  74  71 E5        29.92R HX  91
6HR MIN TEMP:  84; 6HR MAX TEMP:  88;

AURORA         PTSUNNY   83  78  83 CALM      29.92R HX  93
HASTINGS       MOSUNNY   82  71  69 E7        29.92S
6HR MIN TEMP:  82; 6HR MAX TEMP:  86; 6HR PCP: TRACE;

HEBRON         MOSUNNY   86  70  58 E5        29.88F HX  90
HOLDREGE       CLOUDY    80  73  79 CALM      29.93F
KEARNEY *      PTSUNNY   81  73  78 E6        29.94F
YORK           PTSUNNY   82 N/A N/A S5        29.90S
$$

NEZ011>018-030>034-042>045-230100-
NORTHEAST NEBRASKA

CITY           SKY/WX    TMP DP  RH WIND       PRES   REMARKS
NORFOLK        MOSUNNY   85  71  63 NE12      29.91F HX  90
6HR MIN TEMP:  85; 6HR MAX TEMP:  89;

ALBION         SUNNY     83  67  59 N6        29.94R
BLAIR          CLOUDY    74  70  86 NE8       29.93R
FREMONT        RAIN      74  71  88 SW5       29.92S
TEKAMAH        CLOUDY    75  71  87 E13       29.93R THUNDER
6HR MIN TEMP:  75; 6HR MAX TEMP:  91; 6HR PCP: TRACE;

WAYNE          PTSUNNY   83  75  76 NE7       29.93R HX  91
$$

NEZ050>053-065>068-078-088>093-230100-
SOUTHEAST NEBRASKA

CITY           SKY/WX    TMP DP  RH WIND       PRES   REMARKS
LINCOLN        PTSUNNY   89  69  51 E6        29.90R HX  93
6HR MIN TEMP:  89; 6HR MAX TEMP:  93;

OMAHA EPPLEY   CLOUDY    78  75  90 N3        29.91R
6HR MIN TEMP:  76; 6HR MAX TEMP:  92; 6HR PCP:  0.78;

BEATRICE       MOSUNNY   84  72  68 E7        29.90S
FALLS CITY     PTSUNNY   80  75  84 NE5       29.90R
6HR MIN TEMP:  77; 6HR MAX TEMP:  83; 6HR PCP:  0.20;

NEBRASKA CITY  CLOUDY    80  73  81 SE3       29.92R
PLATTSMOUTH    CLOUDY    82  74  77 CALM      29.91R
$$

NEZ044-045-051>053-067-230100-
OMAHA AREA

CITY           SKY/WX    TMP DP  RH WIND       PRES   REMARKS
OMAHA EPPLEY   CLOUDY    78  75  90 N3        29.91R
6HR MIN TEMP:  76; 6HR MAX TEMP:  92; 6HR PCP:  0.78;

BLAIR          CLOUDY    74  70  86 NE8       29.93R
FREMONT        RAIN      74  71  88 SW5       29.92S
MILLARD        CLOUDY    82  73  75 NE3       29.91R
OFFUTT AFB     CLOUDY    81  80  99 NE6       29.90R HX  91
PLATTSMOUTH    CLOUDY    82  74  77 CALM      29.91R
WAHOO          HVY RAIN  72  67  83 W8        29.92S
$$


USA.gov is the U.S. government's official web portal to all federal, state and local government web resources and services.